Tracking 29892 objects as of 21-Nov-2024
HD Live streaming from Space Station
objects crossing your sky now

STARLINK-2015

Track STARLINK-2015 now!
10-day predictions
STARLINK-2015 is classified as:


NORAD ID: 47638
Int'l Code: 2021-012U
Perigee: 553.0 km
Apogee: 555.5 km
Inclination: 53.1 °
Period: 95.6 minutes
Semi major axis: 6925 km
RCS: Unknown
Launch date: February 16, 2021
Source: United States (US)
Launch site: AIR FORCE EASTERN TEST RANGE (AFETR)
Your satellite tracking list
Your tracking list is empty




NASA's NSSDC Master Catalog

Two Line Element Set (TLE):
1 47638U 21012U   24325.97420151  .00013584  00000-0  92840-3 0  9996
2 47638  53.0546 303.2066 0001824 107.6592 252.4597 15.06426734209405
Source of the keplerian elements: AFSPC